GW0383 Weather Reports


time (UTC)temp
C
wind
direction
speed
KPH
gust
KPH
rain 1hr
cm
rain 24hr
cm
rain mn
cm
humidity
%
barometer
mb
20260510033641 17 197 4.8 4.8 0.00 0.00 0.00 63 1006.0
20260510033139 17 149 0.0 1.6 0.00 0.00 0.00 63 1005.7
20260510032635 17 152 1.6 1.6 0.00 0.00 0.00 63 1005.7
20260510032131 17 136 0.0 0.0 0.00 0.00 0.00 63 1005.5
20260510031626 17 135 0.0 0.0 0.00 0.00 0.00 62 1005.8
20260510031123 17 156 0.0 3.2 0.00 0.00 0.00 62 1005.6
20260510030617 17 131 0.0 0.0 0.00 0.00 0.00 60 1005.5
20260510030115 18 131 0.0 0.0 0.00 0.00 0.00 58 1005.7
20260510025612 18 136 0.0 1.6 0.00 0.00 0.00 58 1005.8
20260510025109 17 106 0.0 0.0 0.00 0.00 0.00 59 1005.5
20260510024606 18 134 0.0 0.0 0.00 0.00 0.00 60 1005.7
20260510024103 18 133 0.0 0.0 0.00 0.00 0.00 60 1005.7
20260510023559 18 134 0.0 0.0 0.00 0.00 0.00 59 1005.5
20260510023056 18 112 0.0 0.0 0.00 0.00 0.00 58 1005.5
20260510022555 18 111 0.0 0.0 0.00 0.00 0.00 58 1005.4
20260510022050 18 114 0.0 0.0 0.00 0.00 0.00 58 1005.4
20260510021546 18 114 0.0 0.0 0.00 0.00 0.00 58 1005.3
20260510021044 18 130 0.0 0.0 0.00 0.00 0.00 60 1005.3
20260510020538 18 131 0.0 0.0 0.00 0.00 0.00 61 1005.3
20260510020034 18 131 0.0 0.0 0.00 0.00 0.00 61 1005.2
20260510015530 18 132 0.0 0.0 0.00 0.00 0.00 61 1005.1
20260510015026 18 132 0.0 0.0 0.00 0.00 0.00 60 1004.9
20260510014523 18 131 0.0 0.0 0.00 0.00 0.00 59 1004.9
20260510014020 18 130 0.0 0.0 0.00 0.00 0.00 57 1004.6
20260510013514 19 131 0.0 0.0 0.00 0.00 0.00 56 1004.8
20260510013011 19 130 0.0 0.0 0.00 0.00 0.00 56 1004.5
20260510012505 18 130 0.0 0.0 0.00 0.00 0.00 57 1004.3
20260510012001 18 130 0.0 0.0 0.00 0.00 0.00 57 1004.6
20260510011455 18 132 0.0 0.0 0.00 0.00 0.00 57 1004.2
20260510010951 18 121 0.0 0.0 0.00 0.00 0.00 57 1004.2
20260510010449 19 121 0.0 0.0 0.00 0.00 0.00 56 1004.1
20260510005946 19 121 0.0 0.0 0.00 0.00 0.00 54 1004.0
20260510005441 19 121 0.0 0.0 0.00 0.00 0.00 54 1004.1
20260510004939 19 121 0.0 0.0 0.00 0.00 0.00 55 1003.9
20260510004436 19 121 0.0 0.0 0.00 0.00 0.00 54 1003.7
20260510003934 19 122 0.0 0.0 0.00 0.00 0.00 54 1003.5
20260510003431 19 120 0.0 0.0 0.00 0.00 0.00 54 1003.3
20260510002930 19 121 0.0 1.6 0.00 0.00 0.00 54 1003.3
20260510002427 19 164 0.0 0.0 0.00 0.00 0.00 54 1003.3
20260510001924 20 164 0.0 0.0 0.00 0.00 0.00 54 1003.3
20260510001421 20 164 0.0 0.0 0.00 0.00 0.00 53 1003.4
20260510000919 20 164 0.0 0.0 0.00 0.00 0.00 53 1003.3
20260510000415 20 164 0.0 0.0 0.00 0.00 0.00 51 1003.5
20260509235911 21 164 0.0 0.0 0.00 0.00 0.00 51 1003.4
20260509235409 21 165 1.6 3.2 0.00 0.00 0.00 50 1003.4
20260509234904 21 161 1.6 1.6 0.00 0.00 0.00 49 1003.3
20260509234402 21 139 0.0 1.6 0.00 0.00 0.00 48 1003.3
20260509233859 21 114 0.0 1.6 0.00 0.00 0.00 48 1003.4
20260509233357 21 138 0.0 0.0 0.00 0.00 0.00 49 1003.2
20260509232852 21 135 0.0 0.0 0.00 0.00 0.00 49 1003.4
20260509232351 22 139 0.0 0.0 0.00 0.00 0.00 48 1003.3
20260509231846 21 130 0.0 0.0 0.00 0.00 0.00 48 1003.2
20260509231343 21 124 0.0 1.6 0.00 0.00 0.00 49 1003.2
20260509230841 22 144 0.0 0.0 0.00 0.00 0.00 49 1003.3
20260509230338 23 144 0.0 1.6 0.00 0.00 0.00 47 1003.2
20260509225833 23 147 1.6 1.6 0.00 0.00 0.00 46 1003.4
20260509225330 23 149 0.0 1.6 0.00 0.00 0.00 46 1003.1
20260509224826 23 150 1.6 1.6 0.00 0.00 0.00 45 1002.9
20260509224322 23 164 1.6 1.6 0.00 0.00 0.00 45 1003.2
20260509223819 23 163 3.2 3.2 0.00 0.00 0.00 49 1003.4
20260509223316 23 158 1.6 3.2 0.00 0.00 0.00 46 1003.2
20260509222813 23 152 1.6 3.2 0.00 0.00 0.00 48 1003.1
20260509222308 22 162 3.2 3.2 0.00 0.00 0.00 47 1003.0
20260509221804 21 170 3.2 3.2 0.00 0.00 0.00 48 1003.2
20260509221302 21 141 0.0 1.6 0.00 0.00 0.00 50 1003.3
20260509220757 21 150 1.6 1.6 0.00 0.00 0.00 49 1003.4
20260509220253 21 128 0.0 3.2 0.00 0.00 0.00 48 1003.4
20260509215748 21 145 0.0 1.6 0.00 0.00 0.00 50 1003.1
20260509215245 21 154 1.6 3.2 0.00 0.00 0.00 48 1003.3
20260509214742 22 179 1.6 4.8 0.00 0.00 0.00 50 1003.3
20260509214239 23 142 3.2 4.8 0.00 0.00 0.00 48 1003.2
20260509213736 23 151 0.0 3.2 0.00 0.00 0.00 46 1003.3
20260509213232 21 158 1.6 3.2 0.00 0.00 0.00 50 1003.0
20260509212730 21 166 1.6 3.2 0.00 0.00 0.00 49 1003.1
20260509212227 20 163 1.6 3.2 0.00 0.00 0.00 52 1003.1
20260509211722 20 175 4.8 4.8 0.00 0.00 0.00 52 1003.1
20260509211219 21 164 1.6 3.2 0.00 0.00 0.00 52 1002.8
20260509210716 21 135 0.0 3.2 0.00 0.00 0.00 50 1002.9
20260509210213 21 188 4.8 8.0 0.00 0.00 0.00 48 1003.0
20260509205713 21 148 1.6 4.8 0.00 0.00 0.00 49 1003.2
20260509205213 21 178 3.2 4.8 0.00 0.00 0.00 51 1002.9
20260509204709 21 186 3.2 3.2 0.00 0.00 0.00 52 1002.7
20260509204205 21 152 1.6 8.0 0.00 0.00 0.00 50 1003.0
20260509203701 21 180 3.2 8.0 0.00 0.00 0.00 51 1002.7
20260509203200 22 171 3.2 8.0 0.00 0.00 0.00 50 1002.8
20260509202655 23 137 0.0 4.8 0.00 0.00 0.00 48 1002.8
20260509202150 22 168 3.2 4.8 0.00 0.00 0.00 48 1002.9
20260509201646 24 154 3.2 8.0 0.00 0.00 0.00 47 1002.8
20260509201143 24 210 4.8 4.8 0.00 0.00 0.00 46 1003.0
20260509200639 22 141 0.0 3.2 0.00 0.00 0.00 50 1002.9
20260509200134 21 151 0.0 3.2 0.00 0.00 0.00 50 1003.0
20260509195630 22 115 0.0 4.8 0.00 0.00 0.00 51 1003.0
20260509195125 21 174 3.2 8.0 0.00 0.00 0.00 53 1003.2
20260509194625 21 131 0.0 1.6 0.00 0.00 0.00 52 1002.7
20260509194122 21 129 0.0 4.8 0.00 0.00 0.00 52 1003.4
20260509193618 22 113 0.0 1.6 0.00 0.00 0.00 50 1003.2
20260509193114 23 74 1.6 3.2 0.00 0.00 0.00 48 1003.2
20260509192611 23 202 3.2 8.0 0.00 0.00 0.00 47 1003.5
20260509192106 23 146 1.6 4.8 0.00 0.00 0.00 47 1003.5
20260509191601 24 171 4.8 8.0 0.00 0.00 0.00 46 1003.5
20260509191057 23 138 0.0 0.0 0.00 0.00 0.00 51 1003.7
20260509190554 23 204 3.2 4.8 0.00 0.00 0.00 51 1003.6
20260509190052 22 150 0.0 3.2 0.00 0.00 0.00 52 1003.6
20260509185549 21 118 0.0 1.6 0.00 0.00 0.00 52 1004.0
20260509185045 21 104 1.6 3.2 0.00 0.00 0.00 52 1004.1
20260509184543 21 160 3.2 4.8 0.00 0.00 0.00 54 1004.0
20260509184039 21 182 4.8 4.8 0.00 0.00 0.00 54 1004.2
20260509183535 22 152 3.2 4.8 0.00 0.00 0.00 50 1004.2
20260509183031 21 204 3.2 4.8 0.00 0.00 0.00 55 1004.5
20260509182527 21 119 0.0 3.2 0.00 0.00 0.00 56 1004.1
20260509182025 20 202 3.2 4.8 0.00 0.00 0.00 56 1004.3
20260509181523 20 168 1.6 4.8 0.00 0.00 0.00 60 1004.7
20260509181020 20 116 0.0 3.2 0.00 0.00 0.00 56 1004.6
20260509180515 20 135 0.0 3.2 0.00 0.00 0.00 57 1004.8
20260509180014 20 135 0.0 3.2 0.00 0.00 0.00 58 1004.8
20260509175508 20 140 0.0 3.2 0.00 0.00 0.00 59 1005.0
20260509175005 20 143 0.0 0.0 0.00 0.00 0.00 61 1005.2
20260509174502 19 132 0.0 0.0 0.00 0.00 0.00 62 1004.8
20260509173956 18 136 0.0 0.0 0.00 0.00 0.00 60 1005.0
20260509173451 18 154 0.0 0.0 0.00 0.00 0.00 61 1005.0
20260509172948 18 139 0.0 0.0 0.00 0.00 0.00 59 1005.2
20260509172445 18 157 1.6 3.2 0.00 0.00 0.00 56 1005.2
20260509171940 18 159 1.6 3.2 0.00 0.00 0.00 59 1005.6
20260509171436 18 162 1.6 3.2 0.00 0.00 0.00 59 1005.6
20260509170933 19 157 0.0 0.0 0.00 0.00 0.00 61 1005.5
20260509170429 19 145 1.6 3.2 0.00 0.00 0.00 58 1005.5
20260509165925 19 100 1.6 3.2 0.00 0.00 0.00 53 1005.3
20260509165419 19 166 1.6 1.6 0.00 0.00 0.00 56 1005.5
20260509164914 19 176 4.8 4.8 0.00 0.00 0.00 56 1005.5
20260509164411 19 168 1.6 4.8 0.00 0.00 0.00 57 1005.1
20260509163907 18 156 1.6 1.6 0.00 0.00 0.00 59 1005.5
20260509163404 18 188 3.2 3.2 0.00 0.00 0.00 59 1005.4
20260509162903 18 157 1.6 1.6 0.00 0.00 0.00 62 1005.4
20260509162402 17 155 1.6 3.2 0.00 0.00 0.00 60 1005.7
20260509161858 17 194 4.8 4.8 0.00 0.00 0.00 61 1005.4
20260509161354 17 154 1.6 3.2 0.00 0.00 0.00 61 1005.5
20260509160850 17 140 0.0 0.0 0.00 0.00 0.00 61 1005.7
20260509160346 17 136 0.0 3.2 0.00 0.00 0.00 62 1005.6
20260509155841 17 155 3.2 3.2 0.00 0.00 0.00 59 1005.6
20260509155338 17 176 3.2 4.8 0.00 0.00 0.00 62 1005.9
20260509154834 17 120 0.0 1.6 0.00 0.00 0.00 60 1005.7
20260509154331 17 142 0.0 4.8 0.00 0.00 0.00 60 1005.6
20260509153828 18 136 0.0 3.2 0.00 0.00 0.00 56 1005.8
20260509153324 18 101 1.6 1.6 0.00 0.00 0.00 55 1005.9
20260509152822 17 153 1.6 1.6 0.00 0.00 0.00 58 1005.6
20260509152317 17 96 0.0 1.6 0.00 0.00 0.00 57 1005.8
20260509151815 18 95 1.6 1.6 0.00 0.00 0.00 56 1005.8
20260509151311 18 112 0.0 1.6 0.00 0.00 0.00 54 1005.7
20260509150810 18 138 0.0 1.6 0.00 0.00 0.00 56 1005.7
20260509150307 18 105 0.0 1.6 0.00 0.00 0.00 55 1005.6
20260509145804 18 113 0.0 1.6 0.00 0.00 0.00 55 1005.5
20260509145306 18 135 0.0 0.0 0.00 0.00 0.00 58 1005.5
20260509144800 17 131 0.0 0.0 0.00 0.00 0.00 55 1005.4
20260509144257 16 131 0.0 0.0 0.00 0.00 0.00 60 1005.5
20260509143754 16 144 0.0 1.6 0.00 0.00 0.00 59 1005.5
20260509143252 15 141 1.6 3.2 0.00 0.00 0.00 62 1005.8
20260509142747 15 128 0.0 3.2 0.00 0.00 0.00 64 1005.5
20260509142244 16 158 1.6 1.6 0.00 0.00 0.00 61 1005.6
20260509141740 15 133 0.0 3.2 0.00 0.00 0.00 61 1005.9
20260509141237 15 144 0.0 1.6 0.00 0.00 0.00 62 1005.8
20260509140733 15 150 1.6 3.2 0.00 0.00 0.00 63 1006.0
20260509140231 14 134 0.0 3.2 0.00 0.00 0.00 61 1006.0
20260509135728 14 124 0.0 3.2 0.00 0.00 0.00 63 1006.1
20260509135226 14 158 1.6 3.2 0.00 0.00 0.00 61 1006.4
20260509134722 14 172 1.6 3.2 0.00 0.00 0.00 64 1006.2
20260509134220 14 185 1.6 1.6 0.00 0.00 0.00 64 1006.4
20260509133717 14 143 0.0 0.0 0.00 0.00 0.00 65 1006.1
20260509133214 13 139 0.0 0.0 0.00 0.00 0.00 65 1006.3
20260509132713 13 116 0.0 0.0 0.00 0.00 0.00 65 1006.3
20260509132211 13 117 0.0 0.0 0.00 0.00 0.00 66 1006.1
20260509131707 13 125 0.0 0.0 0.00 0.00 0.00 67 1006.3
20260509131204 13 115 0.0 0.0 0.00 0.00 0.00 64 1006.1
20260509130659 13 128 0.0 0.0 0.00 0.00 0.00 66 1006.0
20260509130156 13 137 0.0 0.0 0.00 0.00 0.00 66 1006.0
20260509125652 12 113 0.0 0.0 0.00 0.00 0.00 67 1006.1
20260509125149 12 121 0.0 0.0 0.00 0.00 0.00 67 1006.1
20260509124646 12 124 0.0 0.0 0.00 0.00 0.00 68 1006.2
20260509124142 12 124 0.0 0.0 0.00 0.00 0.00 67 1006.2
20260509123640 12 123 0.0 0.0 0.00 0.00 0.00 67 1006.2
20260509123137 12 106 0.0 1.6 0.00 0.00 0.00 68 1006.2
20260509122633 12 96 1.6 1.6 0.00 0.00 0.00 63 1006.3
20260509122130 12 103 1.6 4.8 0.00 0.00 0.00 65 1006.1
20260509121626 12 102 0.0 1.6 0.00 0.00 0.00 65 1006.2
20260509121125 11 111 0.0 1.6 0.00 0.00 0.00 66 1006.0
20260509120622 12 104 0.0 0.0 0.00 0.00 0.00 66 1006.0
20260509120120 11 123 0.0 1.6 0.00 0.00 0.00 66 1006.3
20260509115617 11 95 1.6 3.2 0.00 0.00 0.00 64 1006.0
20260509115115 12 97 1.6 3.2 0.00 0.00 0.00 65 1006.1
20260509114613 12 116 0.0 1.6 0.00 0.00 0.00 62 1005.9
20260509114112 12 100 0.0 3.2 0.00 0.00 0.00 59 1006.2
20260509113609 12 105 1.6 3.2 0.00 0.00 0.00 59 1006.0
20260509113107 12 113 0.0 3.2 0.00 0.00 0.00 54 1005.9
20260509112603 12 127 0.0 3.2 0.00 0.00 0.00 54 1005.7
20260509112100 12 118 0.0 3.2 0.00 0.00 0.00 54 1005.9
20260509111557 13 133 0.0 4.8 0.00 0.00 0.00 56 1005.6
20260509111054 13 129 0.0 3.2 0.00 0.00 0.00 54 1005.8
20260509110551 13 128 0.0 0.0 0.00 0.00 0.00 53 1005.8
20260509110048 13 157 1.6 3.2 0.00 0.00 0.00 53 1005.9
20260509105546 13 178 3.2 3.2 0.00 0.00 0.00 52 1005.9
20260509105044 13 164 1.6 3.2 0.00 0.00 0.00 52 1005.8
20260509104540 13 178 1.6 3.2 0.00 0.00 0.00 52 1005.8
20260509104037 13 194 4.8 4.8 0.00 0.00 0.00 53 1005.7
20260509103535 13 166 1.6 3.2 0.00 0.00 0.00 53 1005.7
20260509103033 12 177 3.2 3.2 0.00 0.00 0.00 53 1005.8
20260509102530 12 178 1.6 3.2 0.00 0.00 0.00 54 1005.8
20260509102027 13 161 1.6 3.2 0.00 0.00 0.00 52 1005.7
20260509101523 12 144 0.0 3.2 0.00 0.00 0.00 52 1005.7
20260509101020 12 176 1.6 3.2 0.00 0.00 0.00 53 1005.9
20260509100517 12 152 0.0 3.2 0.00 0.00 0.00 53 1005.9
20260509100015 12 162 1.6 1.6 0.00 0.00 0.00 53 1005.8
20260509095511 12 150 1.6 3.2 0.00 0.00 0.00 54 1006.0
20260509095009 12 148 0.0 0.0 0.00 0.00 0.00 53 1005.9
20260509094505 12 123 0.0 0.0 0.00 0.00 0.00 52 1005.8
20260509094002 12 130 0.0 1.6 0.00 0.00 0.00 52 1005.9
20260509093500 12 143 1.6 3.2 0.00 0.00 0.00 51 1006.1
20260509092957 13 180 1.6 3.2 0.00 0.00 0.00 52 1006.2
20260509092455 12 167 1.6 3.2 0.00 0.00 0.00 52 1006.0
20260509091954 12 137 0.0 0.0 0.00 0.00 0.00 51 1005.9
20260509091450 12 59 0.0 4.8 0.00 0.00 0.00 52 1006.0
20260509090947 13 112 0.0 1.6 0.00 0.00 0.00 52 1005.8
20260509090445 13 135 0.0 1.6 0.00 0.00 0.00 52 1006.0
20260509085942 13 112 0.0 1.6 0.00 0.00 0.00 51 1006.1
20260509085439 13 100 1.6 3.2 0.00 0.00 0.00 51 1006.1
20260509084935 13 124 0.0 1.6 0.00 0.00 0.00 52 1006.4
20260509084432 13 120 1.6 1.6 0.00 0.00 0.00 51 1006.2
20260509083929 13 101 0.0 4.8 0.00 0.00 0.00 50 1006.1
20260509083426 13 126 0.0 8.0 0.00 0.00 0.00 48 1006.1
20260509082923 13 138 0.0 3.2 0.00 0.00 0.00 49 1006.4
20260509082421 13 147 0.0 0.0 0.00 0.00 0.00 49 1006.2
20260509081917 13 208 3.2 4.8 0.00 0.00 0.00 49 1006.5
20260509081415 13 124 0.0 1.6 0.00 0.00 0.00 49 1006.2
20260509080912 13 156 1.6 3.2 0.00 0.00 0.00 48 1006.3
20260509080410 13 164 0.0 1.6 0.00 0.00 0.00 49 1006.3
20260509075908 13 164 3.2 3.2 0.00 0.00 0.00 50 1006.4
20260509075404 13 192 3.2 4.8 0.00 0.00 0.00 50 1006.3
20260509074902 13 234 4.8 8.0 0.00 0.00 0.00 50 1006.4
20260509074359 13 196 3.2 4.8 0.00 0.00 0.00 51 1006.5
20260509073855 13 196 4.8 4.8 0.00 0.00 0.00 50 1006.4
20260509073352 13 200 4.8 4.8 0.00 0.00 0.00 50 1006.4
20260509072849 13 176 3.2 4.8 0.00 0.00 0.00 51 1006.7
20260509072345 13 143 0.0 3.2 0.00 0.00 0.00 50 1006.7
20260509071842 13 172 1.6 3.2 0.00 0.00 0.00 50 1006.7
20260509071339 13 160 1.6 4.8 0.00 0.00 0.00 50 1006.5
20260509070836 13 192 4.8 4.8 0.00 0.00 0.00 49 1006.5
20260509070333 13 181 6.4 11.3 0.00 0.00 0.00 49 1006.6
20260509065829 13 199 3.2 8.0 0.00 0.00 0.00 49 1006.6
20260509065325 13 192 3.2 8.0 0.00 0.00 0.00 50 1006.7
20260509064821 13 205 3.2 3.2 0.00 0.00 0.00 49 1006.6
20260509064319 13 174 1.6 4.8 0.00 0.00 0.00 48 1006.8
20260509063816 13 154 1.6 4.8 0.00 0.00 0.00 48 1006.5
20260509063312 13 176 3.2 4.8 0.00 0.00 0.00 48 1006.7
20260509062810 13 185 3.2 4.8 0.00 0.00 0.00 48 1006.8
20260509062307 13 176 0.0 3.2 0.00 0.00 0.00 48 1006.9
20260509061804 13 148 3.2 4.8 0.00 0.00 0.00 47 1006.9
20260509061302 13 164 3.2 4.8 0.00 0.00 0.00 47 1007.0
20260509060759 14 174 3.2 4.8 0.00 0.00 0.00 47 1007.1
20260509060256 13 171 3.2 8.0 0.00 0.00 0.00 47 1006.7
20260509055751 13 167 3.2 4.8 0.00 0.00 0.00 49 1006.8
20260509055247 13 204 4.8 8.0 0.00 0.00 0.00 49 1007.2
20260509054744 13 211 4.8 8.0 0.00 0.00 0.00 50 1007.0
20260509054240 13 207 4.8 9.7 0.00 0.00 0.00 49 1006.9
20260509053739 13 207 4.8 8.0 0.00 0.00 0.00 48 1007.0
20260509053235 13 210 6.4 9.7 0.00 0.00 0.00 47 1007.1
20260509052734 13 206 6.4 12.9 0.00 0.00 0.00 48 1007.0
20260509052231 13 211 6.4 9.7 0.00 0.00 0.00 49 1007.0
20260509051728 14 200 6.4 9.7 0.00 0.00 0.00 47 1007.1
20260509051226 14 212 4.8 9.7 0.00 0.00 0.00 48 1007.0
20260509050723 14 217 6.4 9.7 0.00 0.00 0.00 47 1007.0
20260509050219 15 205 6.4 11.3 0.00 0.00 0.00 46 1007.1
20260509045717 15 204 8.0 12.9 0.00 0.00 0.00 46 1007.1
20260509045214 14 209 6.4 11.3 0.00 0.00 0.00 46 1007.2
20260509044711 15 209 8.0 11.3 0.00 0.00 0.00 46 1007.1
20260509044209 15 201 6.4 14.5 0.00 0.00 0.00 47 1007.1
20260509043705 15 191 8.0 12.9 0.00 0.00 0.00 46 1007.1
20260509043201 15 209 6.4 9.7 0.00 0.00 0.00 47 1006.8
20260509042657 15 187 8.0 11.3 0.00 0.00 0.00 46 1006.9
20260509042153 15 201 8.0 11.3 0.00 0.00 0.00 47 1007.1
20260509041650 14 219 6.4 11.3 0.00 0.00 0.00 47 1006.8
20260509041148 15 162 4.8 12.9 0.00 0.00 0.00 47 1007.0
20260509040646 14 194 6.4 11.3 0.00 0.00 0.00 47 1007.2
20260509040142 14 183 6.4 11.3 0.00 0.00 0.00 48 1007.1
20260509035639 14 185 6.4 9.7 0.00 0.00 0.00 48 1007.0
20260509035136 15 175 4.8 11.3 0.00 0.00 0.00 48 1006.8
20260509034633 15 182 4.8 11.3 0.00 0.00 0.00 47 1007.3
20260509034130 15 197 6.4 9.7 0.00 0.00 0.00 47 1007.3